Dewpoint
44 44 45 46 47 47 47 48 48 48 49 49 49 49 50 51 53 47 44 49 49 52 52 35 34 34 34 36 37 35 28 19 21 23 23 28 26 26 24 23 22 25 29 24 24
43 45 45 46 46 47 48 48 48 48 48 49 49 49 50 52 41 40 50 52 52 53 36 32 29 30 30 33 34 32 26 22 24 23 24 27 25 23 23 22 21 22 21 22 24
44 45 45 46 46 47 48 47 48 47 49 49 49 48 49 50 36 35 48 49 50 47 35 33 30 29 32 32 33 33 26 28 24 31 29 25 23 23 22 22 21 20 20 22 23
43 44 45 45 46 47 48 47 48 48 49 49 49 49 49 45 29 35 44 45 48 41 33 33 31 30 28 28 28 27 27 25 29 29 26 23 22 21 21 20 21 21 22 22 23
43 44 44 45 46 47 47 48 48 48 49 50 48 48 47 34 31 29 45 42 34 33 32 30 30 30 25 23 25 23 22 23 23 24 23 21 19 17 16 18 21 21 23 24 25
42 43 44 45 46 47 46 48 48 49 50 49 48 48 41 26 32 29 32 35 32 30 29 31 31 31 28 25 24 25 23 21 21 19 17 16 16 16 19 22 21 20 22 24 27
42 42 44 45 46 46 46 47 48 50 49 47 48 42 30 28 30 32 32 35 35 33 32 33 33 31 30 27 25 22 19 15 13 15 18 21 18 17 19 22 21 21 22 24 25
41 42 43 45 46 45 46 47 48 50 49 49 49 42 29 33 31 29 31 33 34 34 35 36 34 34 31 30 23 18 16 12 14 18 21 21 13 20 23 22 21 21 21 23 24
41 43 44 45 45 45 46 46 48 50 49 50 46 39 27 34 27 29 31 29 34 34 33 25 33 31 30 23 18 18 11 10 14 18 19 19 16 22 23 22 21 19 20 22 23
41 42 43 45 44 44 44 47 48 49 48 41 34 31 27 25 30 30 33 34 33 34 33 32 27 23 22 18 12 12 12 10 8 16 18 17 16 15 13 21 21 19 23 21 22
41 42 43 45 43 44 43 44 39 38 36 32 30 26 27 28 31 31 33 33 32 28 23 30 23 18 15 18 18 17 15 12 12 12 18 16 15 12 8 18 21 19 19 20 22
41 41 43 44 41 40 40 35 35 38 29 32 31 31 31 33 24 29 34 28 28 22 26 26 19 24 24 22 20 18 15 15 15 16 17 17 15 15 16 14 21 18 18 19 20
40 40 43 43 39 40 37 34 38 38 29 29 31 30 33 31 25 27 30 28 23 19 21 20 20 23 22 22 20 17 16 16 16 18 17 16 15 16 14 17 19 18 18 18 17
40 40 42 39 37 36 35 36 39 39 27 27 29 29 31 32 27 30 31 29 25 20 19 19 24 23 22 19 18 16 22 20 20 18 17 15 14 13 11 20 18 16 16 15 15
40 41 41 33 36 33 36 38 41 38 20 24 25 32 32 27 29 29 32 30 21 20 23 20 20 21 23 21 21 21 24 21 21 19 18 16 14 12 12 17 15 15 15 14 12
40 41 40 31 38 36 39 41 39 30 14 25 25 26 27 27 27 29 29 31 29 27 24 22 23 23 22 22 23 24 22 21 20 19 11 15 13 12 14 15 15 13 12 13 10
42 42 37 26 33 39 42 37 28 22 17 24 24 25 25 24 24 26 26 26 23 19 18 19 20 23 24 21 25 24 21 13 11 10 10 10 9 8 17 19 18 11 10 11 12
43 39 33 30 36 42 40 31 17 29 22 25 23 24 22 23 24 24 22 19 22 20 15 9 14 18 22 21 19 21 21 15 5 6 14 16 12 8 19 17 15 10 10 11 12
43 39 36 36 40 41 33 25 24 29 22 22 22 25 24 23 22 22 20 18 21 21 15 13 12 18 20 20 21 21 19 21 13 13 11 13 11 17 17 12 7 7 9 10 12
37 34 34 37 41 39 32 23 27 18 20 22 23 26 22 22 18 20 19 20 22 23 23 19 15 17 19 21 21 20 21 14 16 2 -1 9 8 5 12 15 11 9 8 9 11
35 30 35 38 39 35 26 29 21 18 22 20 25 19 26 22 22 20 18 21 21 23 24 21 19 15 16 16 12 20 20 20 18 15 5 3 6 9 16 18 16 12 8 8 11
32 31 34 37 32 32 29 25 22 20 23 20 19 24 24 24 22 19 16 18 21 23 21 23 23 17 13 14 13 13 15 15 11 10 12 12 9 16 15 17 18 18 13 11 11
32 29 34 34 26 27 26 17 20 21 21 18 17 19 22 23 19 21 17 20 21 20 21 21 18 8 13 11 10 10 11 14 15 15 13 11 8 13 14 16 19 23 22 16 15
32 27 30 32 31 29 25 22 20 20 20 19 19 20 21 18 19 15 17 17 18 18 21 21 19 11 4 3 9 8 6 6 7 7 9 9 11 10 12 19 18 21 24 20 15
37 32 30 23 27 24 24 21 19 18 18 20 19 20 21 13 15 10 18 16 16 17 19 20 10 14 15 15 12 10 9 9 9 9 2 6 8 12 15 17 18 24 24 23 19
31 27 28 28 26 20 23 21 20 20 19 16 20 18 22 15 17 13 14 16 17 17 18 18 11 12 4 11 10 8 6 6 6 7 7 8 8 9 9 11 16 21 23 23 23
36 30 34 26 26 21 18 22 19 19 17 17 19 21 20 21 18 20 18 20 21 16 15 12 11 4 -2 5 7 -3 4 2 5 7 4 3 8 11 13 15 13 18 19 21 22
Lifted_Index
17 17 17 16 16 16 15 15 15 14 14 14 14 14 13 13 12 11 10 10 10 11 12 12 11 10 8 7 7 6 5 5 5 5 4 4 4 5 5 5 5 5 4 4 5
17 17 17 17 16 16 15 15 15 14 14 14 14 14 13 12 12 11 11 11 11 11 12 12 11 10 8 7 7 6 5 5 5 5 5 4 5 5 5 5 5 5 5 5 5
18 18 17 17 16 16 15 15 15 14 14 14 14 14 13 12 11 12 13 12 12 12 12 12 11 9 8 7 7 6 6 6 6 6 5 5 5 5 5 5 5 5 5 5 5
18 18 18 17 17 16 15 15 15 15 14 14 14 14 13 11 11 13 14 14 13 13 12 11 10 9 8 7 7 7 6 7 7 7 7 6 6 6 6 6 6 6 6 6 6
18 18 18 17 17 16 16 15 15 14 14 13 14 13 12 11 12 14 15 15 14 14 13 11 10 9 8 7 7 7 7 7 7 8 7 7 6 6 6 6 6 6 7 6 6
18 18 18 17 17 16 16 15 14 14 13 13 13 13 12 12 14 15 15 15 14 14 13 12 10 10 9 8 8 8 7 7 8 8 7 7 6 6 7 7 7 7 7 7 6
18 18 18 17 17 16 16 15 14 13 13 13 13 13 12 13 15 15 15 15 14 13 13 12 11 10 9 9 8 8 7 7 7 7 7 7 6 6 7 7 7 7 7 7 7
18 18 18 17 17 16 16 15 14 13 12 12 12 12 12 14 15 15 15 14 14 13 13 12 11 10 9 9 8 7 6 6 7 7 8 7 6 6 6 6 6 7 7 7 7
18 18 17 17 17 16 16 15 13 12 12 12 12 12 12 14 15 15 15 14 14 13 13 12 11 10 9 8 6 6 5 6 7 8 8 7 6 6 7 7 6 7 7 7 8
17 17 17 17 17 16 15 14 13 12 12 12 12 12 13 14 15 15 14 14 13 13 12 11 10 8 8 7 5 5 5 6 6 7 8 7 6 6 7 7 7 7 7 7 8
17 17 17 17 17 16 15 13 12 12 12 12 12 12 13 14 14 14 14 13 12 11 10 9 8 7 7 7 6 6 5 5 6 7 7 6 6 6 6 7 6 6 7 7 7
17 17 17 17 17 16 15 14 13 13 12 12 13 13 13 14 14 14 13 12 11 9 9 8 7 7 8 7 7 6 5 5 6 7 7 6 5 5 6 6 6 6 6 7 7
17 17 17 17 17 16 15 15 15 13 11 11 12 13 13 13 13 13 13 12 10 8 7 7 7 7 7 7 6 6 5 5 5 6 6 5 5 5 5 6 6 6 6 7 7
16 16 17 17 16 15 15 15 16 13 9 9 11 13 13 13 12 12 13 11 9 8 7 7 7 7 6 6 6 5 6 5 5 5 5 5 4 4 5 6 6 6 6 7 7
16 16 17 17 16 15 15 16 15 10 6 7 10 12 12 12 12 12 12 11 9 8 7 7 7 7 6 6 6 6 6 6 6 5 4 4 4 4 5 6 6 6 6 7 7
16 16 17 17 16 16 16 15 11 7 5 6 9 10 11 11 11 11 11 10 8 7 7 7 7 7 7 7 7 7 6 5 5 4 4 4 4 5 5 5 5 5 6 6 7
16 16 17 17 16 16 15 12 7 4 5 6 8 9 9 9 9 9 9 8 7 6 5 6 6 7 7 7 7 6 5 4 3 2 3 4 5 4 4 4 4 4 5 6 7
16 16 17 17 16 16 14 9 5 4 5 7 8 8 8 8 8 8 7 7 6 6 5 4 5 7 7 7 7 6 5 3 2 2 3 4 4 4 3 3 3 3 4 5 6
16 16 17 17 17 15 12 7 4 5 7 7 8 7 7 7 7 7 7 6 6 6 6 5 5 7 8 8 7 6 5 4 3 2 3 4 4 4 3 2 2 2 3 4 5
16 16 17 17 16 14 10 6 6 8 9 8 7 7 6 6 6 6 6 7 7 7 7 6 6 7 8 8 7 6 5 4 4 2 2 3 4 3 2 2 2 2 3 3 4
15 14 16 17 15 12 8 6 8 9 10 9 8 7 6 6 5 5 6 7 7 8 8 7 7 7 7 7 7 6 6 5 4 3 2 2 3 3 2 1 1 2 2 3 4
14 13 15 15 13 10 8 7 9 10 10 9 8 7 6 5 5 5 6 7 8 8 8 8 7 6 6 7 7 7 6 6 5 4 3 2 3 3 2 1 1 1 2 2 3
13 13 15 15 11 8 7 7 8 9 9 8 8 7 6 5 5 5 6 7 8 8 8 8 7 5 5 6 7 7 7 6 6 5 4 3 3 3 2 1 1 1 1 2 2
12 12 13 12 10 7 6 6 6 7 8 8 7 7 6 5 5 5 6 8 9 9 9 8 7 6 5 6 7 7 7 6 5 4 3 3 3 3 3 2 2 2 2 2 2
12 11 10 8 7 6 5 5 4 5 7 7 6 6 5 5 5 5 6 7 8 9 9 8 7 6 6 6 7 7 6 6 5 4 3 3 3 3 4 4 4 4 4 3 3
11 10 8 6 5 4 4 4 4 4 6 6 5 5 6 6 6 6 7 8 8 8 8 8 7 6 6 6 6 6 6 5 5 4 4 3 3 4 4 5 5 5 5 5 4
11 10 8 5 4 4 4 4 4 4 6 6 6 6 6 7 7 8 8 8 8 8 8 7 7 6 5 6 6 5 5 5 5 4 4 3 4 4 5 5 5 6 6 5 5